Location: Sternwarte-Kraichtal
(49.1689°N, 8.6996°E)
Time: 20:38:52
(UTC+02:00)

Vanguard 2 Rocket - Pass Details

Date: 01 June 2022
Orbit: 553 x 3323 km, 32.9° (Epoch: 02 July)

Event Time Altitude Azimuth Distance (km) Brightness Sun altitude
Rises 12:23:18 0° 220° (SW) 6,860 11.5 60.4°
Reaches altitude 10° 12:28:15 10° 213° (SSW) 6,063 11.4 60.8°
Maximum altitude 12:44:59 36° 156° (SSE) 4,430 11.8 61.9°
Drops below altitude 10° 13:00:15 10° 99° (E) 5,577 11.2 62.5°
Sets 13:04:31 0° 92° (E) 6,278 11.3 62.7°
